User: anonymous   Login
Location: LDNL
(36.4545°S, 141.6685°E)
Time: 21:08:23
(UTC+10:00)
Language:

VELOX 1 - Orbit

View from above orbital plane
View from above orbital plane
View from above satellite
View from above satellite

Ground track
Ground track

The orbit data is extracted from the following two-line orbital elements,

1 40057U 14034E   22142.19786030  .00003474  00000-0  47693-3 0  9993
2 40057  98.3632 313.7060 0011650  58.6988 301.5386 14.79037284425592
Epoch (UTC): 22 May 2022 04:44:55
Eccentricity: 0.0011650
inclination: 98.3632°
perigee height: 624 km
apogee height: 640 km
right ascension of ascending node: 313.7060°
argument of perigee: 58.6988°
revolutions per day: 14.79037284
mean anomaly at epoch: 301.5386°
orbit number at epoch: 42559

The dashed part of the orbit path shows where the satellite is in the earth's shadow,  

DLR